ELY347 LLBG-LSZH

Flight info

Callsign ELY347
Flight time N/A
Altitude 36000
Route SUVAS DCT TEZAK N128 OTHON DCT VAXOS UN128 RDS UL609 MES DCT DISOR DCT LONTA UL608 DOLEV/N0460F380 DCT YUYUH DCT GENLU DCT PODOB DCT BOSNA DCT ERKIR DCT KPT L856 NEGRA
Aircraft B738/M-SDE2E3FGHIRWXY/LB1

Departure

Time 2026-05-01 11:34
Airport Ben Gurion International Airport (LLBG)

Arrival

Time N/A
Airport Zürich Airport (LSZH)
Time Latitude Longitude Altitude Speed Heading
2026-05-01 10:56 32.00602 34.87498 119 ft 0 kts 243°
2026-05-01 11:25 32.00607 34.87509 115 ft 3 kts 244°
2026-05-01 11:25 32.00624 34.87550 114 ft 3 kts 237°
2026-05-01 11:25 32.00636 34.87566 114 ft 3 kts 201°
2026-05-01 11:26 32.00651 34.87568 114 ft 3 kts 147°
2026-05-01 11:26 32.00654 34.87570 116 ft 3 kts 122°
2026-05-01 11:26 32.00643 34.87590 116 ft 3 kts 122°
2026-05-01 11:27 32.00632 34.87610 118 ft 3 kts 122°
2026-05-01 11:27 32.00627 34.87621 118 ft 0 kts 121°
2026-05-01 11:29 32.00619 34.87717 116 ft 11 kts 58°
2026-05-01 11:30 32.00618 34.87794 117 ft 8 kts 108°
2026-05-01 11:30 32.00589 34.87863 116 ft 13 kts 107°
2026-05-01 11:30 32.00641 34.87956 118 ft 15 kts 32°
2026-05-01 11:30 32.00734 34.88024 119 ft 18 kts 32°
2026-05-01 11:31 32.00864 34.88119 117 ft 24 kts 31°
2026-05-01 11:31 32.01005 34.88221 116 ft 23 kts 31°
2026-05-01 11:31 32.01140 34.88318 119 ft 22 kts 31°
2026-05-01 11:31 32.01269 34.88418 119 ft 22 kts 37°
2026-05-01 11:32 32.01376 34.88541 116 ft 21 kts 48°
2026-05-01 11:32 32.01452 34.88686 119 ft 21 kts 63°
2026-05-01 11:32 32.01496 34.88843 119 ft 20 kts 80°
2026-05-01 11:32 32.01521 34.89002 116 ft 19 kts 79°
2026-05-01 11:33 32.01561 34.89147 117 ft 19 kts 40°
2026-05-01 11:33 32.01685 34.89143 115 ft 18 kts 349°
2026-05-01 11:33 32.01738 34.89044 117 ft 17 kts 260°
2026-05-01 11:33 32.01718 34.88905 118 ft 17 kts 260°
2026-05-01 11:34 32.01672 34.88607 118 ft 70 kts 260°
2026-05-01 11:34 32.01546 34.87778 117 ft 133 kts 259°
2026-05-01 11:34 32.01343 34.86554 412 ft 163 kts 262°
2026-05-01 11:34 32.01114 34.85143 922 ft 188 kts 262°
2026-05-01 11:35 32.00864 34.83605 1642 ft 194 kts 258°
2026-05-01 11:35 32.00532 34.82044 2484 ft 199 kts 256°
2026-05-01 11:35 32.00186 34.80461 3296 ft 197 kts 256°
2026-05-01 11:35 31.99842 34.78821 3739 ft 219 kts 255°
2026-05-01 11:36 31.99450 34.76983 4109 ft 240 kts 255°
2026-05-01 11:36 31.99216 34.74945 4509 ft 262 kts 276°
2026-05-01 11:36 31.99635 34.72838 5433 ft 263 kts 284°
2026-05-01 11:36 32.00117 34.70806 6544 ft 257 kts 283°
2026-05-01 11:37 32.00607 34.68763 7290 ft 261 kts 283°
2026-05-01 11:37 32.01105 34.66687 8034 ft 265 kts 284°
2026-05-01 11:37 32.01609 34.64585 8827 ft 268 kts 284°
2026-05-01 11:37 32.02116 34.62459 9633 ft 271 kts 284°
2026-05-01 11:38 32.02629 34.60306 10365 ft 274 kts 284°
2026-05-01 11:38 32.03144 34.58136 11118 ft 276 kts 284°
2026-05-01 11:38 32.03661 34.55955 11877 ft 277 kts 284°
2026-05-01 11:38 32.04180 34.53760 12643 ft 279 kts 284°
2026-05-01 11:39 32.04703 34.51545 13384 ft 282 kts 284°
2026-05-01 11:39 32.05230 34.49313 14096 ft 284 kts 284°
2026-05-01 11:39 32.05580 34.47826 14546 ft 285 kts 284°
2026-05-01 11:39 32.06112 34.45569 15231 ft 286 kts 284°
2026-05-01 11:40 32.06646 34.43300 15915 ft 288 kts 284°
2026-05-01 11:40 32.07183 34.41014 16585 ft 290 kts 284°
2026-05-01 11:40 32.07723 34.38714 17255 ft 293 kts 284°
2026-05-01 11:40 32.08267 34.36393 17929 ft 295 kts 284°
2026-05-01 11:41 32.08815 34.34055 18551 ft 297 kts 284°
2026-05-01 11:41 32.09366 34.31703 19144 ft 298 kts 284°
2026-05-01 11:41 32.09917 34.29345 19755 ft 299 kts 284°
2026-05-01 11:41 32.10470 34.26978 20354 ft 300 kts 284°
2026-05-01 11:42 32.11018 34.24634 20936 ft 301 kts 284°
2026-05-01 11:42 32.11577 34.22235 21379 ft 309 kts 284°
2026-05-01 11:42 32.12161 34.19724 21474 ft 326 kts 284°
2026-05-01 11:42 32.12776 34.17082 21593 ft 341 kts 284°
2026-05-01 11:43 32.13417 34.14324 21708 ft 356 kts 284°
2026-05-01 11:43 32.14094 34.11411 21807 ft 371 kts 284°
2026-05-01 11:43 32.14778 34.08466 21897 ft 383 kts 284°
2026-05-01 11:44 32.16216 34.02292 22002 ft 397 kts 286°
2026-05-01 11:44 32.17216 33.99219 22042 ft 405 kts 294°
2026-05-01 11:44 32.18614 33.96295 22086 ft 413 kts 303°
2026-05-01 11:44 32.20320 33.93542 22133 ft 418 kts 304°
2026-05-01 11:45 32.22042 33.90746 22169 ft 423 kts 303°
2026-05-01 11:45 32.23760 33.87924 22442 ft 421 kts 303°
2026-05-01 11:45 32.25451 33.85130 22940 ft 415 kts 303°
2026-05-01 11:45 32.27111 33.82376 23485 ft 408 kts 303°
2026-05-01 11:46 32.28745 33.79660 23896 ft 403 kts 303°
2026-05-01 11:46 32.30370 33.76953 24100 ft 405 kts 303°
2026-05-01 11:46 32.32007 33.74222 24139 ft 410 kts 303°
2026-05-01 11:46 32.33667 33.71450 24180 ft 415 kts 303°
2026-05-01 11:47 32.35344 33.68650 24222 ft 419 kts 303°
2026-05-01 11:47 32.37036 33.65825 24298 ft 422 kts 303°
2026-05-01 11:47 32.38733 33.62990 24529 ft 421 kts 303°
2026-05-01 11:47 32.40415 33.60180 24901 ft 416 kts 303°
2026-05-01 11:48 32.42053 33.57442 25274 ft 411 kts 303°
2026-05-01 11:48 32.43698 33.54691 25625 ft 408 kts 303°
2026-05-01 11:48 32.45334 33.51951 25910 ft 407 kts 303°
2026-05-01 11:48 32.46966 33.49213 26059 ft 409 kts 303°
2026-05-01 11:49 32.48614 33.46447 26104 ft 413 kts 303°
2026-05-01 11:49 32.50279 33.43648 26156 ft 417 kts 303°
2026-05-01 11:49 32.51955 33.40831 26258 ft 419 kts 303°
2026-05-01 11:49 32.53633 33.38010 26470 ft 418 kts 303°
2026-05-01 11:50 32.55307 33.35195 26749 ft 416 kts 303°
2026-05-01 11:50 32.56968 33.32397 27015 ft 415 kts 303°
2026-05-01 11:50 32.58627 33.29603 27220 ft 414 kts 303°
2026-05-01 11:50 32.60290 33.26799 27386 ft 415 kts 303°
2026-05-01 11:51 32.61944 33.24006 27620 ft 414 kts 303°
2026-05-01 11:51 32.63608 33.21196 27647 ft 418 kts 303°
2026-05-01 11:51 32.65285 33.18360 27683 ft 421 kts 303°
2026-05-01 11:51 32.66973 33.15503 27727 ft 424 kts 303°
2026-05-01 11:52 32.68671 33.12627 27761 ft 427 kts 303°
2026-05-01 11:52 32.70372 33.09747 28049 ft 423 kts 303°
2026-05-01 11:52 32.72049 33.06906 28443 ft 418 kts 303°
2026-05-01 11:52 32.73719 33.04073 28600 ft 419 kts 303°
2026-05-01 11:53 32.77072 32.98375 28767 ft 423 kts 303°
2026-05-01 11:53 32.78754 32.95515 28958 ft 422 kts 303°
2026-05-01 11:53 32.80430 32.92662 29225 ft 419 kts 303°
2026-05-01 11:54 32.82094 32.89829 29472 ft 418 kts 303°
2026-05-01 11:54 32.83758 32.86994 29642 ft 418 kts 303°
2026-05-01 11:54 32.85417 32.84162 29812 ft 418 kts 303°
2026-05-01 11:54 32.87078 32.81328 30027 ft 416 kts 303°
2026-05-01 11:55 32.88727 32.78510 30250 ft 415 kts 302°
2026-05-01 11:55 32.90372 32.75697 30415 ft 414 kts 302°
2026-05-01 11:55 32.92018 32.72882 30542 ft 414 kts 302°
2026-05-01 11:55 32.93662 32.70066 30698 ft 414 kts 302°
2026-05-01 11:56 32.95301 32.67256 30895 ft 413 kts 302°
2026-05-01 11:56 32.96936 32.64453 31075 ft 412 kts 302°
2026-05-01 11:56 32.98568 32.61653 31239 ft 411 kts 302°
2026-05-01 11:56 33.00175 32.58893 31382 ft 411 kts 302°
2026-05-01 11:57 33.01802 32.56095 31567 ft 410 kts 302°
2026-05-01 11:57 33.03426 32.53303 31745 ft 409 kts 302°
2026-05-01 11:57 33.05046 32.50515 31910 ft 409 kts 302°
2026-05-01 11:57 33.06661 32.47731 32081 ft 408 kts 302°
2026-05-01 11:58 33.08275 32.44950 32252 ft 407 kts 302°
2026-05-01 11:58 33.09884 32.42174 32416 ft 407 kts 302°
2026-05-01 11:58 33.13098 32.36621 32750 ft 406 kts 302°
2026-05-01 11:59 33.14701 32.33850 32932 ft 405 kts 302°
2026-05-01 11:59 33.16302 32.31081 33093 ft 405 kts 302°
2026-05-01 11:59 33.17897 32.28317 33241 ft 405 kts 302°
2026-05-01 12:00 33.21086 32.22789 33598 ft 403 kts 302°
2026-05-01 12:00 33.22675 32.20032 33758 ft 403 kts 302°
2026-05-01 12:00 33.25844 32.14525 34060 ft 402 kts 301°
2026-05-01 12:01 33.27423 32.11778 34218 ft 401 kts 301°
2026-05-01 12:01 33.29001 32.09032 34359 ft 400 kts 301°
2026-05-01 12:01 33.30576 32.06287 34493 ft 400 kts 301°
2026-05-01 12:01 33.32148 32.03547 34637 ft 399 kts 301°
2026-05-01 12:02 33.33715 32.00813 34798 ft 398 kts 301°
2026-05-01 12:02 33.35257 31.98120 34934 ft 398 kts 301°
2026-05-01 12:02 33.36818 31.95392 35042 ft 398 kts 301°
2026-05-01 12:03 33.39945 31.89922 35248 ft 398 kts 301°
2026-05-01 12:03 33.41504 31.87190 35398 ft 397 kts 301°
2026-05-01 12:03 33.43061 31.84463 35536 ft 396 kts 301°
2026-05-01 12:03 33.44615 31.81737 35650 ft 396 kts 301°
2026-05-01 12:04 33.46169 31.79010 35777 ft 396 kts 301°
2026-05-01 12:04 33.47716 31.76295 35915 ft 395 kts 301°
2026-05-01 12:04 33.49258 31.73589 35957 ft 389 kts 301°
2026-05-01 12:04 33.50759 31.70958 35964 ft 376 kts 301°
2026-05-01 12:05 33.52213 31.68407 35961 ft 367 kts 301°
2026-05-01 12:05 33.56492 31.60869 35986 ft 364 kts 301°
2026-05-01 12:06 33.59351 31.55819 35990 ft 370 kts 301°
2026-05-01 12:06 33.62276 31.50647 35993 ft 379 kts 301°
2026-05-01 12:07 33.65264 31.45360 35993 ft 387 kts 301°
2026-05-01 12:07 33.68310 31.39965 35987 ft 393 kts 301°
2026-05-01 12:08 33.71360 31.34556 35978 ft 395 kts 301°
2026-05-01 12:08 33.74442 31.29083 35977 ft 396 kts 301°
2026-05-01 12:09 33.77515 31.23616 35969 ft 393 kts 301°
2026-05-01 12:09 33.80570 31.18173 35985 ft 394 kts 301°
2026-05-01 12:10 33.85176 31.09946 35981 ft 396 kts 301°
2026-05-01 12:11 33.89803 31.01665 35973 ft 398 kts 301°
2026-05-01 12:11 33.92891 30.96129 35974 ft 398 kts 301°
2026-05-01 12:12 33.95975 30.90591 35973 ft 398 kts 301°
2026-05-01 12:12 33.99052 30.85054 35972 ft 397 kts 300°
2026-05-01 12:13 34.02119 30.79525 35973 ft 396 kts 300°
2026-05-01 12:13 34.05172 30.74012 35970 ft 395 kts 300°
2026-05-01 12:14 34.08213 30.68511 35976 ft 394 kts 300°
2026-05-01 12:14 34.11246 30.63016 35973 ft 393 kts 300°
2026-05-01 12:15 34.14269 30.57532 35974 ft 392 kts 300°
2026-05-01 12:15 34.17284 30.52053 35970 ft 391 kts 300°
2026-05-01 12:16 34.20293 30.46577 35962 ft 391 kts 300°
2026-05-01 12:16 34.23297 30.41103 35963 ft 391 kts 300°
2026-05-01 12:17 34.26297 30.35626 35960 ft 391 kts 300°
2026-05-01 12:17 34.29297 30.30142 35962 ft 391 kts 300°
2026-05-01 12:18 34.32295 30.24652 35960 ft 391 kts 300°
2026-05-01 12:18 34.35290 30.19160 35958 ft 391 kts 300°
2026-05-01 12:19 34.38285 30.13659 35961 ft 391 kts 300°
2026-05-01 12:19 34.41278 30.08153 35968 ft 391 kts 300°
2026-05-01 12:20 34.44251 30.02678 35962 ft 391 kts 300°
2026-05-01 12:20 34.47652 29.97499 35968 ft 396 kts 310°
2026-05-01 12:21 34.51541 29.92756 35966 ft 397 kts 310°
2026-05-01 12:21 34.55424 29.88005 35959 ft 397 kts 309°
2026-05-01 12:22 34.58670 29.84009 35963 ft 396 kts 309°
2026-05-01 12:22 34.63158 29.78459 35958 ft 396 kts 309°
2026-05-01 12:23 34.67015 29.73679 35959 ft 396 kts 309°
2026-05-01 12:23 34.70872 29.68892 35964 ft 396 kts 309°
2026-05-01 12:24 34.74721 29.64110 35965 ft 396 kts 309°
2026-05-01 12:24 34.78573 29.59316 35961 ft 396 kts 309°
2026-05-01 12:25 34.84727 29.52571 35966 ft 400 kts 316°
2026-05-01 12:26 34.88409 29.49146 35961 ft 401 kts 316°
2026-05-01 12:26 34.95033 29.42948 35961 ft 400 kts 316°
2026-05-01 12:27 35.01622 29.36710 35961 ft 399 kts 316°
2026-05-01 12:28 35.08200 29.30454 35958 ft 399 kts 316°
2026-05-01 12:29 35.14760 29.24202 35959 ft 399 kts 315°
2026-05-01 12:29 35.21314 29.17943 35959 ft 398 kts 315°
2026-05-01 12:30 35.27830 29.11707 35957 ft 398 kts 315°
2026-05-01 12:31 35.32118 29.07597 35958 ft 398 kts 315°
2026-05-01 12:31 35.36384 29.03501 35957 ft 398 kts 315°
2026-05-01 12:32 35.40735 28.99318 35952 ft 397 kts 315°
2026-05-01 12:32 35.47260 28.93035 35958 ft 397 kts 315°
2026-05-01 12:33 35.51604 28.88844 35960 ft 397 kts 315°
2026-05-01 12:33 35.55949 28.84647 35954 ft 397 kts 315°
2026-05-01 12:34 35.60300 28.80437 35955 ft 397 kts 315°
2026-05-01 12:34 35.64610 28.76262 35956 ft 397 kts 315°
2026-05-01 12:35 35.68949 28.72052 35954 ft 397 kts 315°
2026-05-01 12:35 35.73284 28.67840 35957 ft 397 kts 315°
2026-05-01 12:36 35.77621 28.63619 35956 ft 396 kts 315°
2026-05-01 12:36 35.81930 28.59421 35959 ft 396 kts 315°
2026-05-01 12:37 35.86259 28.55197 35951 ft 396 kts 315°
2026-05-01 12:37 35.90552 28.51002 35946 ft 396 kts 315°
2026-05-01 12:38 35.94870 28.46776 35958 ft 395 kts 315°
2026-05-01 12:38 35.99187 28.42546 35955 ft 395 kts 314°
2026-05-01 12:39 36.03467 28.38346 35949 ft 395 kts 314°
2026-05-01 12:39 36.07769 28.34117 35948 ft 395 kts 314°
2026-05-01 12:40 36.12076 28.29878 35953 ft 395 kts 314°
2026-05-01 12:40 36.15649 28.26356 35956 ft 395 kts 314°
2026-05-01 12:41 36.19545 28.22512 35960 ft 394 kts 314°
2026-05-01 12:41 36.23848 28.18260 35962 ft 394 kts 314°
2026-05-01 12:42 36.28137 28.14015 35970 ft 395 kts 314°
2026-05-01 12:42 36.32409 28.09782 35974 ft 395 kts 314°
2026-05-01 12:43 36.36562 28.05357 35969 ft 392 kts 310°
2026-05-01 12:43 36.40550 28.00730 35968 ft 391 kts 310°
2026-05-01 12:44 36.44514 27.96103 35969 ft 391 kts 310°
2026-05-01 12:45 36.52443 27.86898 35967 ft 390 kts 310°
2026-05-01 12:45 36.56413 27.82291 35969 ft 389 kts 310°
2026-05-01 12:46 36.60372 27.77689 35972 ft 389 kts 310°
2026-05-01 12:46 36.64303 27.73115 35968 ft 389 kts 310°
2026-05-01 12:47 36.68256 27.68509 35970 ft 388 kts 310°
2026-05-01 12:47 36.72173 27.63938 35967 ft 387 kts 309°
2026-05-01 12:48 36.76107 27.59342 35971 ft 386 kts 310°
2026-05-01 12:48 36.80026 27.54753 35978 ft 386 kts 309°
2026-05-01 12:49 36.83946 27.50155 35981 ft 387 kts 309°
2026-05-01 12:49 36.87846 27.45575 35987 ft 387 kts 309°
2026-05-01 12:50 36.91777 27.40953 35993 ft 388 kts 309°
2026-05-01 12:50 36.95712 27.36319 35997 ft 388 kts 309°
2026-05-01 12:51 36.99650 27.31676 36005 ft 389 kts 309°
2026-05-01 12:52 37.05539 27.24718 35998 ft 389 kts 309°
2026-05-01 12:52 37.11450 27.17719 35996 ft 389 kts 309°
2026-05-01 12:53 37.17314 27.10760 35994 ft 388 kts 309°
2026-05-01 12:54 37.21227 27.06107 35992 ft 387 kts 309°
2026-05-01 12:54 37.27056 26.99162 36000 ft 386 kts 309°
2026-05-01 12:55 37.32894 26.92190 36004 ft 385 kts 309°
2026-05-01 12:56 37.36783 26.87537 36009 ft 385 kts 309°
2026-05-01 12:56 37.40662 26.82933 36016 ft 386 kts 310°
2026-05-01 12:57 37.44755 26.78496 36016 ft 388 kts 311°
2026-05-01 12:57 37.50914 26.71932 36025 ft 388 kts 311°
2026-05-01 12:58 37.55020 26.67510 36020 ft 388 kts 311°
2026-05-01 12:59 37.61175 26.60849 36024 ft 388 kts 311°
2026-05-01 12:59 37.67181 26.54335 36029 ft 389 kts 311°
2026-05-01 13:00 37.73311 26.47657 36035 ft 389 kts 311°
2026-05-01 13:01 37.79463 26.40927 36043 ft 390 kts 311°
2026-05-01 13:02 37.85590 26.34212 36047 ft 390 kts 311°
2026-05-01 13:07 38.30876 25.84861 36075 ft 393 kts 314°
2026-05-01 13:08 38.35218 25.80595 36074 ft 394 kts 314°
2026-05-01 13:08 38.39546 25.76311 36082 ft 394 kts 314°
2026-05-01 13:09 38.43853 25.72021 36089 ft 395 kts 314°
2026-05-01 13:09 38.48190 25.67684 36088 ft 396 kts 314°
2026-05-01 13:10 38.52536 25.63330 36089 ft 397 kts 314°
2026-05-01 13:10 38.56857 25.58993 36108 ft 397 kts 314°
2026-05-01 13:11 38.61221 25.54605 36095 ft 399 kts 314°
2026-05-01 13:11 38.65591 25.50205 36105 ft 400 kts 314°
2026-05-01 13:12 38.69972 25.45788 36108 ft 401 kts 314°
2026-05-01 13:12 38.73624 25.42100 36114 ft 402 kts 314°
2026-05-01 13:13 38.78735 25.36930 36119 ft 403 kts 314°
2026-05-01 13:13 38.82421 25.33197 36117 ft 403 kts 314°
2026-05-01 13:14 38.86826 25.28727 36121 ft 403 kts 314°
2026-05-01 13:14 38.91199 25.24283 36127 ft 404 kts 314°
2026-05-01 13:15 38.95604 25.19799 36132 ft 404 kts 314°
2026-05-01 13:15 39.00013 25.15303 36136 ft 404 kts 314°
2026-05-01 13:16 39.04420 25.10803 36139 ft 405 kts 314°
2026-05-01 13:16 39.08828 25.06294 36144 ft 405 kts 314°
2026-05-01 13:17 39.17667 24.97228 36148 ft 406 kts 314°
2026-05-01 13:18 39.24283 24.90424 36156 ft 407 kts 314°
2026-05-01 13:18 39.28716 24.85855 36162 ft 408 kts 314°
2026-05-01 13:19 39.33136 24.81292 36164 ft 408 kts 314°
2026-05-01 13:20 39.39808 24.74391 36166 ft 410 kts 314°
2026-05-01 13:20 39.44262 24.69773 36166 ft 410 kts 314°
2026-05-01 13:21 39.50931 24.62845 36175 ft 412 kts 315°
2026-05-01 13:21 39.55408 24.58184 36175 ft 412 kts 315°
2026-05-01 13:22 39.59886 24.53514 36180 ft 413 kts 315°
2026-05-01 13:22 39.64352 24.48849 36178 ft 414 kts 315°
2026-05-01 13:23 39.68846 24.44146 36182 ft 415 kts 315°
2026-05-01 13:23 39.73347 24.39428 36184 ft 415 kts 315°
2026-05-01 13:24 39.77850 24.34700 36185 ft 416 kts 315°
2026-05-01 13:25 39.84588 24.27610 36190 ft 417 kts 315°
2026-05-01 13:25 39.89099 24.22852 36195 ft 418 kts 315°
2026-05-01 13:26 39.93632 24.18063 36192 ft 418 kts 315°
2026-05-01 13:26 39.98121 24.13312 36191 ft 419 kts 315°
2026-05-01 13:27 40.02648 24.08513 36202 ft 419 kts 315°
2026-05-01 13:27 40.09429 24.01308 36198 ft 420 kts 315°
2026-05-01 13:28 40.16233 23.94060 36202 ft 420 kts 315°
2026-05-01 13:29 40.25297 23.84373 36203 ft 421 kts 315°
2026-05-01 13:31 40.38879 23.69793 36211 ft 422 kts 316°
2026-05-01 13:32 40.50215 23.57564 36209 ft 423 kts 316°
2026-05-01 13:33 40.61601 23.45225 36210 ft 424 kts 316°
2026-05-01 13:34 40.70690 23.35335 36212 ft 425 kts 316°
2026-05-01 13:35 40.77546 23.27851 36211 ft 426 kts 316°
2026-05-01 13:36 40.84366 23.20385 36205 ft 427 kts 316°
2026-05-01 13:36 40.91227 23.12854 36203 ft 427 kts 316°
2026-05-01 13:37 40.95812 23.07809 36209 ft 428 kts 316°
2026-05-01 13:37 41.00386 23.02766 36206 ft 429 kts 316°
2026-05-01 13:38 41.07270 22.95160 36198 ft 430 kts 316°
2026-05-01 13:39 41.11845 22.90091 36371 ft 433 kts 316°
2026-05-01 13:39 41.14156 22.87528 36634 ft 431 kts 316°
2026-05-01 13:39 41.16453 22.84979 36907 ft 430 kts 316°
2026-05-01 13:39 41.18747 22.82430 37150 ft 429 kts 316°
2026-05-01 13:40 41.21042 22.79878 37347 ft 430 kts 317°
2026-05-01 13:40 41.23337 22.77323 37530 ft 430 kts 317°
2026-05-01 13:40 41.25521 22.74706 37765 ft 426 kts 311°
2026-05-01 13:40 41.27536 22.71817 38033 ft 424 kts 310°
2026-05-01 13:41 41.29510 22.68912 38208 ft 424 kts 309°
2026-05-01 13:41 41.33482 22.63020 38195 ft 427 kts 309°
2026-05-01 13:42 41.37451 22.57160 38198 ft 424 kts 309°
2026-05-01 13:42 41.41372 22.51389 38198 ft 421 kts 310°
2026-05-01 13:43 41.45303 22.45604 38201 ft 420 kts 310°
2026-05-01 13:43 41.49222 22.39823 38207 ft 420 kts 310°
2026-05-01 13:44 41.53142 22.34030 38204 ft 420 kts 310°
2026-05-01 13:44 41.57061 22.28227 38203 ft 421 kts 310°
2026-05-01 13:45 41.60968 22.22430 38204 ft 423 kts 310°
2026-05-01 13:45 41.64919 22.16557 38205 ft 425 kts 310°
2026-05-01 13:46 41.68863 22.10681 38200 ft 427 kts 310°
2026-05-01 13:46 41.72835 22.04754 38208 ft 428 kts 310°
2026-05-01 13:47 41.76826 21.98785 38222 ft 430 kts 310°
2026-05-01 13:47 41.80822 21.92798 38216 ft 431 kts 310°
2026-05-01 13:48 41.84794 21.86834 38224 ft 431 kts 310°
2026-05-01 13:48 41.88801 21.80805 38228 ft 432 kts 310°
2026-05-01 13:49 41.92802 21.74773 38242 ft 431 kts 310°
2026-05-01 13:49 41.96767 21.68784 38227 ft 431 kts 310°
2026-05-01 13:50 42.00753 21.62748 38233 ft 430 kts 310°
2026-05-01 13:50 42.04722 21.56728 38220 ft 430 kts 310°
2026-05-01 13:51 42.08587 21.50592 38222 ft 429 kts 310°
2026-05-01 13:51 42.12606 21.44690 38246 ft 429 kts 311°
2026-05-01 13:52 42.16575 21.38686 38229 ft 428 kts 310°
2026-05-01 13:52 42.20439 21.32593 38233 ft 429 kts 309°
2026-05-01 13:53 42.24297 21.26438 38241 ft 430 kts 309°
2026-05-01 13:53 42.30082 21.17220 38252 ft 431 kts 309°
2026-05-01 13:54 42.33964 21.11032 38256 ft 432 kts 309°
2026-05-01 13:54 42.37853 21.04823 38265 ft 433 kts 309°
2026-05-01 13:55 42.41747 20.98594 38257 ft 434 kts 309°
2026-05-01 13:55 42.45644 20.92344 38244 ft 435 kts 309°
2026-05-01 13:56 42.49531 20.86098 38239 ft 435 kts 310°
2026-05-01 13:56 42.53439 20.79804 38241 ft 436 kts 310°
2026-05-01 13:57 42.56691 20.74557 38245 ft 437 kts 310°
2026-05-01 13:57 42.61239 20.67204 38248 ft 437 kts 310°
2026-05-01 13:58 42.64489 20.61938 38235 ft 437 kts 310°
2026-05-01 13:58 42.68389 20.55605 38246 ft 436 kts 310°
2026-05-01 13:59 42.72281 20.49272 38231 ft 436 kts 310°
2026-05-01 13:59 42.76149 20.42965 38237 ft 436 kts 310°
2026-05-01 14:00 42.80037 20.36610 38241 ft 436 kts 310°
2026-05-01 14:00 42.83918 20.30255 38247 ft 436 kts 310°
2026-05-01 14:01 42.87791 20.23902 38238 ft 436 kts 310°
2026-05-01 14:01 42.91661 20.17538 38244 ft 435 kts 310°
2026-05-01 14:02 42.95498 20.11213 38235 ft 435 kts 310°
2026-05-01 14:02 42.99352 20.04848 38240 ft 435 kts 310°
2026-05-01 14:03 43.03207 19.98466 38235 ft 435 kts 310°
2026-05-01 14:03 43.07037 19.92114 38243 ft 435 kts 310°
2026-05-01 14:04 43.10884 19.85716 38244 ft 434 kts 311°
2026-05-01 14:04 43.14729 19.79310 38240 ft 434 kts 311°
2026-05-01 14:05 43.18547 19.72933 38245 ft 435 kts 311°
2026-05-01 14:05 43.22393 19.66498 38247 ft 436 kts 311°
2026-05-01 14:06 43.26239 19.60050 38249 ft 436 kts 311°
2026-05-01 14:06 43.30063 19.53628 38244 ft 437 kts 311°
2026-05-01 14:07 43.33922 19.47134 38242 ft 438 kts 311°
2026-05-01 14:08 43.39678 19.37407 38250 ft 439 kts 311°
2026-05-01 14:08 43.43530 19.30872 38247 ft 439 kts 311°
2026-05-01 14:09 43.47381 19.24323 38260 ft 440 kts 311°
2026-05-01 14:09 43.51228 19.17769 38249 ft 442 kts 311°
2026-05-01 14:10 43.55125 19.11200 38251 ft 442 kts 312°
2026-05-01 14:10 43.59131 19.04749 38247 ft 442 kts 313°
2026-05-01 14:11 43.63146 18.98315 38260 ft 442 kts 313°
2026-05-01 14:11 43.69140 18.88622 38256 ft 442 kts 313°
2026-05-01 14:12 43.73105 18.82173 38257 ft 441 kts 313°
2026-05-01 14:12 43.77076 18.75696 38261 ft 441 kts 313°
2026-05-01 14:13 43.80363 18.70325 38266 ft 439 kts 313°
2026-05-01 14:13 43.84979 18.62766 38255 ft 438 kts 313°
2026-05-01 14:14 43.88882 18.56358 38259 ft 437 kts 313°
2026-05-01 14:14 43.92799 18.49914 38264 ft 437 kts 313°
2026-05-01 14:15 43.96720 18.43450 38260 ft 437 kts 313°
2026-05-01 14:15 44.00627 18.36993 38262 ft 437 kts 313°
2026-05-01 14:16 44.04536 18.30518 38269 ft 437 kts 313°
2026-05-01 14:16 44.08450 18.24020 38280 ft 438 kts 313°
2026-05-01 14:17 44.12347 18.17536 38287 ft 439 kts 313°
2026-05-01 14:17 44.16269 18.10996 38294 ft 440 kts 313°
2026-05-01 14:18 44.20193 18.04438 38285 ft 441 kts 313°
2026-05-01 14:18 44.23461 17.98964 38306 ft 441 kts 313°
2026-05-01 14:19 44.28034 17.91285 38298 ft 442 kts 314°
2026-05-01 14:19 44.31971 17.84658 38303 ft 443 kts 314°
2026-05-01 14:20 44.37866 17.74718 38283 ft 444 kts 314°
2026-05-01 14:21 44.41852 17.68132 38309 ft 443 kts 315°
2026-05-01 14:21 44.45837 17.61594 38310 ft 443 kts 315°
2026-05-01 14:22 44.51821 17.51725 38308 ft 442 kts 315°
2026-05-01 14:22 44.55791 17.45143 38315 ft 441 kts 315°
2026-05-01 14:23 44.59731 17.38595 38318 ft 442 kts 315°
2026-05-01 14:23 44.63702 17.31980 38316 ft 442 kts 315°
2026-05-01 14:24 44.67650 17.25387 38314 ft 442 kts 315°
2026-05-01 14:24 44.71612 17.18754 38323 ft 442 kts 315°
2026-05-01 14:25 44.75546 17.12152 38323 ft 442 kts 315°
2026-05-01 14:25 44.79497 17.05509 38320 ft 442 kts 315°
2026-05-01 14:26 44.85418 16.95524 38319 ft 442 kts 315°
2026-05-01 14:27 44.89335 16.88897 38318 ft 442 kts 315°
2026-05-01 14:27 44.93280 16.82209 38322 ft 442 kts 315°
2026-05-01 14:28 44.99187 16.72163 38319 ft 443 kts 315°
2026-05-01 14:28 45.03118 16.65458 38325 ft 442 kts 315°
2026-05-01 14:29 45.07022 16.58785 38319 ft 443 kts 315°
2026-05-01 14:30 45.14867 16.45326 38319 ft 442 kts 316°
2026-05-01 14:31 45.20705 16.35268 38323 ft 442 kts 316°
2026-05-01 14:31 45.24622 16.28497 38327 ft 441 kts 316°
2026-05-01 14:32 45.28481 16.21813 38326 ft 440 kts 316°
2026-05-01 14:32 45.32361 16.15077 38324 ft 440 kts 316°
2026-05-01 14:33 45.36227 16.08347 38326 ft 439 kts 316°
2026-05-01 14:33 45.40094 16.01602 38324 ft 438 kts 316°
2026-05-01 14:34 45.43947 15.94863 38315 ft 438 kts 316°
2026-05-01 14:34 45.47769 15.88164 38317 ft 438 kts 315°
2026-05-01 14:35 45.51604 15.81425 38319 ft 438 kts 315°
2026-05-01 14:35 45.55437 15.74674 38319 ft 438 kts 315°
2026-05-01 14:36 45.59266 15.67914 38320 ft 437 kts 315°
2026-05-01 14:36 45.63093 15.61143 38319 ft 437 kts 315°
2026-05-01 14:37 45.66916 15.54359 38321 ft 438 kts 315°
2026-05-01 14:37 45.70718 15.47598 38316 ft 438 kts 315°
2026-05-01 14:38 45.74531 15.40799 38308 ft 438 kts 315°
2026-05-01 14:38 45.78325 15.34020 38325 ft 437 kts 315°
2026-05-01 14:39 45.82124 15.27214 38313 ft 438 kts 315°
2026-05-01 14:39 45.85936 15.20370 38313 ft 438 kts 315°
2026-05-01 14:40 45.89733 15.13535 38316 ft 438 kts 315°
2026-05-01 14:40 45.93509 15.06720 38320 ft 437 kts 315°
2026-05-01 14:41 45.97300 14.99863 38330 ft 437 kts 314°
2026-05-01 14:41 46.01060 14.93044 38313 ft 437 kts 314°
2026-05-01 14:42 46.04438 14.86906 38315 ft 437 kts 314°
2026-05-01 14:42 46.08206 14.80040 38317 ft 436 kts 314°
2026-05-01 14:43 46.11966 14.73174 38305 ft 436 kts 314°
2026-05-01 14:43 46.15726 14.66290 38286 ft 436 kts 314°
2026-05-01 14:44 46.19482 14.59397 38288 ft 436 kts 314°
2026-05-01 14:44 46.25080 14.49090 38286 ft 436 kts 314°
2026-05-01 14:45 46.30056 14.39898 38292 ft 435 kts 314°
2026-05-01 14:46 46.33782 14.32995 38289 ft 435 kts 314°
2026-05-01 14:46 46.39366 14.22617 38304 ft 435 kts 313°
2026-05-01 14:47 46.43060 14.15730 38311 ft 434 kts 313°
2026-05-01 14:48 46.48614 14.05344 38327 ft 433 kts 313°
2026-05-01 14:48 46.54151 13.94951 38332 ft 436 kts 313°
2026-05-01 14:49 46.61586 13.80937 38316 ft 438 kts 313°
2026-05-01 14:50 46.64675 13.75090 37829 ft 433 kts 312°
2026-05-01 14:50 46.68838 13.67174 37169 ft 414 kts 313°
2026-05-01 14:51 46.70578 13.63863 36897 ft 411 kts 313°
2026-05-01 14:51 46.74123 13.57134 36411 ft 425 kts 313°
2026-05-01 14:52 46.77781 13.50172 35926 ft 440 kts 312°
2026-05-01 14:52 46.79635 13.46633 35676 ft 448 kts 312°
2026-05-01 14:52 46.83437 13.39343 35172 ft 448 kts 312°
2026-05-01 14:53 46.85306 13.35741 34914 ft 443 kts 312°
2026-05-01 14:53 46.87171 13.32148 34678 ft 445 kts 312°
2026-05-01 14:53 46.89052 13.28528 34437 ft 448 kts 312°
2026-05-01 14:53 46.90939 13.24893 34178 ft 450 kts 312°
2026-05-01 14:54 46.92836 13.21235 33906 ft 451 kts 312°
2026-05-01 14:54 46.94731 13.17574 33627 ft 452 kts 312°
2026-05-01 14:54 46.96635 13.13889 33359 ft 453 kts 312°
2026-05-01 14:54 46.98510 13.10256 33106 ft 453 kts 311°
2026-05-01 14:55 47.00413 13.06561 32842 ft 454 kts 311°
2026-05-01 14:55 47.02309 13.02876 32528 ft 452 kts 311°
2026-05-01 14:55 47.04202 12.99190 32382 ft 454 kts 311°
2026-05-01 14:56 47.08018 12.91757 32270 ft 454 kts 311°
2026-05-01 14:56 47.11800 12.84361 32296 ft 453 kts 311°
2026-05-01 14:57 47.15589 12.76936 32295 ft 454 kts 311°
2026-05-01 14:57 47.21249 12.65808 32296 ft 456 kts 311°
2026-05-01 14:58 47.25044 12.58319 32288 ft 457 kts 310°
2026-05-01 14:58 47.28834 12.50819 32294 ft 457 kts 310°
2026-05-01 14:59 47.32622 12.43303 32296 ft 456 kts 310°
2026-05-01 14:59 47.36401 12.35784 32306 ft 456 kts 310°
2026-05-01 15:00 47.42060 12.24489 32306 ft 456 kts 310°
2026-05-01 15:01 47.45800 12.16997 32285 ft 455 kts 310°
2026-05-01 15:01 47.49547 12.09472 32292 ft 454 kts 310°
2026-05-01 15:02 47.53055 12.01689 32280 ft 458 kts 299°
2026-05-01 15:02 47.55034 11.92725 32293 ft 464 kts 284°
2026-05-01 15:03 47.55870 11.86188 32291 ft 466 kts 283°
2026-05-01 15:03 47.57027 11.76729 32291 ft 467 kts 283°
2026-05-01 15:04 47.58205 11.67382 32278 ft 467 kts 283°
2026-05-01 15:04 47.59132 11.60167 32287 ft 465 kts 284°
2026-05-01 15:05 47.60347 11.50760 32296 ft 465 kts 283°
2026-05-01 15:05 47.61558 11.41333 32292 ft 465 kts 283°
2026-05-01 15:06 47.62750 11.31970 32297 ft 465 kts 283°
2026-05-01 15:06 47.63942 11.22525 32291 ft 466 kts 283°
2026-05-01 15:07 47.65024 11.13891 32066 ft 459 kts 283°
2026-05-01 15:07 47.65596 11.09296 31813 ft 447 kts 283°
2026-05-01 15:07 47.66153 11.04799 31552 ft 438 kts 283°
2026-05-01 15:07 47.66697 11.00402 31290 ft 429 kts 283°
2026-05-01 15:08 47.67230 10.96088 31035 ft 420 kts 283°
2026-05-01 15:08 47.67750 10.91864 30788 ft 412 kts 283°
2026-05-01 15:08 47.68262 10.87703 30545 ft 409 kts 283°
2026-05-01 15:08 47.68764 10.83607 30293 ft 408 kts 283°
2026-05-01 15:09 47.69224 10.79462 30003 ft 407 kts 280°
2026-05-01 15:09 47.69520 10.75287 29723 ft 407 kts 277°
2026-05-01 15:09 47.69741 10.71095 29445 ft 407 kts 277°
2026-05-01 15:09 47.69942 10.66904 29166 ft 407 kts 277°
2026-05-01 15:10 47.70148 10.62729 28898 ft 406 kts 277°
2026-05-01 15:10 47.70589 10.54374 28346 ft 403 kts 277°
2026-05-01 15:10 47.70815 10.50277 28082 ft 402 kts 277°
2026-05-01 15:11 47.71048 10.46104 27807 ft 400 kts 277°
2026-05-01 15:11 47.71502 10.37948 27276 ft 397 kts 277°
2026-05-01 15:11 47.71728 10.33865 27019 ft 395 kts 277°
2026-05-01 15:12 47.71951 10.29800 26767 ft 394 kts 277°
2026-05-01 15:12 47.72390 10.21700 26259 ft 392 kts 277°
2026-05-01 15:12 47.72607 10.17675 26010 ft 391 kts 277°
2026-05-01 15:13 47.73199 10.06525 25328 ft 388 kts 276°
2026-05-01 15:14 47.73614 9.98571 24844 ft 385 kts 276°
2026-05-01 15:14 47.73722 9.94651 24600 ft 384 kts 271°
2026-05-01 15:14 47.73515 9.87078 24159 ft 382 kts 269°
2026-05-01 15:15 47.73254 9.79225 23659 ft 379 kts 269°
2026-05-01 15:15 47.73031 9.71432 23111 ft 376 kts 270°
2026-05-01 15:16 47.72823 9.63748 22352 ft 368 kts 270°
2026-05-01 15:16 47.72636 9.56252 21549 ft 363 kts 269°
2026-05-01 15:17 47.72412 9.48801 20733 ft 359 kts 268°
2026-05-01 15:18 47.70106 9.38607 19607 ft 354 kts 231°
2026-05-01 15:18 47.68546 9.35793 19220 ft 352 kts 230°
2026-05-01 15:19 47.63859 9.27475 18008 ft 348 kts 230°
2026-05-01 15:19 47.60765 9.21861 17238 ft 366 kts 230°
2026-05-01 15:19 47.59356 9.18711 16797 ft 368 kts 247°
2026-05-01 15:20 47.58289 9.11407 15988 ft 360 kts 261°
2026-05-01 15:20 47.57874 9.07763 15582 ft 357 kts 260°
2026-05-01 15:20 47.57625 9.04956 15273 ft 355 kts 269°
2026-05-01 15:21 47.57976 9.01370 14878 ft 351 kts 289°
2026-05-01 15:21 47.58855 8.98011 14486 ft 349 kts 294°
2026-05-01 15:21 47.59806 8.94719 14097 ft 347 kts 294°
2026-05-01 15:21 47.60744 8.91433 13660 ft 345 kts 293°
2026-05-01 15:22 47.62535 8.84931 12862 ft 340 kts 292°
2026-05-01 15:22 47.63125 8.81572 12469 ft 337 kts 272°
2026-05-01 15:22 47.62873 8.78154 12093 ft 333 kts 251°
2026-05-01 15:23 47.62034 8.74981 11721 ft 330 kts 246°
2026-05-01 15:23 47.61121 8.71868 11357 ft 327 kts 245°
2026-05-01 15:23 47.60224 8.68776 10969 ft 326 kts 245°
2026-05-01 15:23 47.59346 8.65689 10653 ft 323 kts 248°
2026-05-01 15:24 47.58940 8.62475 10494 ft 316 kts 271°
2026-05-01 15:24 47.59422 8.59359 10366 ft 308 kts 293°
2026-05-01 15:24 47.60576 8.56741 10215 ft 302 kts 313°
2026-05-01 15:24 47.62094 8.54588 9651 ft 308 kts 317°
2026-05-01 15:25 47.63704 8.52449 8813 ft 313 kts 318°
2026-05-01 15:25 47.65340 8.50279 7995 ft 318 kts 318°
2026-05-01 15:25 47.66980 8.48060 7244 ft 319 kts 318°
2026-05-01 15:25 47.68578 8.45879 6670 ft 314 kts 317°
2026-05-01 15:26 47.70170 8.43693 6056 ft 309 kts 318°
2026-05-01 15:26 47.71736 8.41525 5469 ft 306 kts 317°
2026-05-01 15:26 47.73021 8.39020 4769 ft 308 kts 294°
2026-05-01 15:26 47.73361 8.35863 3756 ft 318 kts 263°
2026-05-01 15:27 47.72561 8.32895 3381 ft 302 kts 235°
2026-05-01 15:27 47.71284 8.30554 3211 ft 284 kts 219°
2026-05-01 15:27 47.69631 8.29235 3127 ft 258 kts 194°
2026-05-01 15:28 47.66587 8.29400 2989 ft 214 kts 160°
2026-05-01 15:28 47.65282 8.30310 3006 ft 213 kts 144°
2026-05-01 15:29 47.63181 8.33047 2979 ft 189 kts 135°
2026-05-01 15:29 47.62224 8.34374 2985 ft 189 kts 136°
2026-05-01 15:29 47.60330 8.37001 2970 ft 181 kts 136°
2026-05-01 15:30 47.58790 8.39098 2998 ft 182 kts 135°
2026-05-01 15:31 47.54754 8.44638 2987 ft 170 kts 136°
2026-05-01 15:31 47.53193 8.46760 2920 ft 146 kts 137°
2026-05-01 15:32 47.52282 8.47952 2605 ft 142 kts 137°
2026-05-01 15:32 47.50877 8.49852 2168 ft 139 kts 135°
2026-05-01 15:33 47.48706 8.52907 1584 ft 142 kts 135°
2026-05-01 15:34 47.47106 8.55109 1387 ft 38 kts 136°